Regional Weather Roundup
Issued by NWS

Home | Current Version | Previous Version | Text Only | Print | Product List | Glossary Off
Versions: 1 2 3 4 5 6 7 8 9 10 11 12 13 14 15 16 17 18 19 20 21 22 23 24 25 26 27 28 29 30 31 32 33 34 35 36 37 38 39 40 41 42 43 44 45 46 47 48 49 50

000
ASUS43 KTOP 180308
RWRKS

WEATHER ROUNDUP FOR KANSAS
NATIONAL WEATHER SERVICE GOODLAND KS
900 PM CST FRI NOV 17 2017

NOTE:  "FAIR" INDICATES FEW OR NO CLOUDS BELOW 12,000 FEET WITH NO
SIGNIFICANT WEATHER AND/OR OBSTRUCTIONS TO VISIBILITY.

KSZ001>006-013>018-027>032-041>047-180400-
NORTHWEST KANSAS

CITY           SKY/WX    TMP DP  RH WIND       PRES   REMARKS
GOODLAND       CLEAR     42  31  64 N20G28    29.65R
HAYS           PTCLDY    50  39  66 N16       29.51R
HILL CITY      CLEAR     47  35  63 N23G29    29.56S
RUSSELL        PTCLDY    53  47  79 N14G24    29.46S
$$

KSZ061>065-074>080-084>089-180400-
SOUTHWEST KANSAS

CITY           SKY/WX    TMP DP  RH WIND       PRES   REMARKS
DODGE CITY     MOCLDY    71  34  25 W18       29.48F
ELKHART        CLEAR     67  42  39 W24G36    29.60S
GARDEN CITY    PTCLDY    65  33  30 W15       29.51R
GREAT BEND     PTCLDY    54  40  59 N7        29.46S
LIBERAL        CLEAR     69  37  30 SW23      29.54F
PRATT          MOCLDY    63  35  36 SW7       29.44F
$$

KSZ066>073-081>083-090>101-180400-
SOUTHEAST KANSAS

CITY           SKY/WX    TMP DP  RH WIND       PRES   REMARKS
CHANUTE        CLOUDY    71  60  68 S15       29.49F
COFFEYVILLE    CLOUDY    73  62  68 S17G28    29.50F
HUTCHINSON     CLOUDY    62  50  64 SE6       29.41F
MEDICINE LODGE   N/A     69  39  33 S9        29.44S
NEWTON         CLOUDY    62  49  62 SE10      29.43F
PARSONS        CLOUDY    72  62  71 S15G24    29.51F
WICHITA INTL   CLOUDY    67  51  56 S13       29.42F
WICHITA JABRA  CLOUDY    68  51  54 S12       29.43F
WICHITA MCCONL CLOUDY    68  49  50 S13       29.43F
WINFIELD       CLOUDY    72  52  49 S15G24    29.48F
$$

KSZ007>012-019>026-033>040-048>060-102>105-180400-
NORTHEAST KANSAS

CITY           SKY/WX    TMP DP  RH WIND       PRES   REMARKS
CONCORDIA      PTCLDY    51  43  74 N14       29.51R
EMPORIA        CLOUDY    64  51  62 S12       29.45F
LAWRENCE       CLOUDY    56  55  97 E5        29.46F
MANHATTAN      PTCLDY    49  44  83 CALM      29.45F
MARYSVILLE     CLOUDY    54  48  82 N12       29.48F
OLATHE IND     CLOUDY    59  58  96 S6        29.48F
OLATHE EXE     CLOUDY    59  59 100 CALM      29.48S
SALINA         MOCLDY    60  48  64 N13       29.44F
TOPEKA BILLARD CLOUDY    56  55  97 CALM      29.45F
TOPEKA FORBES  CLOUDY    56  53  90 CALM      29.46F
$$



USA.gov is the U.S. government's official web portal to all federal, state and local government web resources and services.